Location: Zagreb
(45.8000°N, 16.0000°E)
Time: 13:48:24
(UTC+02:00)

Vanguard 1 - Pass Details

Date: 13 August 2022
Orbit: 649 x 3832 km, 34.2° (Epoch: 25 September)

Event Time Altitude Azimuth Distance (km) Brightness Sun altitude
Rises 06:41:51 0° 254° (WSW) 6,175 13.4 7.2°
Reaches altitude 10° 06:45:23 10° 251° (WSW) 5,507 13.3 7.8°
Maximum altitude 07:03:20 60° 177° (S) 3,982 13.3 10.9°
Drops below altitude 10° 07:26:04 10° 106° (ESE) 6,756 15.9 14.8°
Sets 07:31:00 0° 103° (ESE) 7,580 16.0 15.6°
